Regional Weather Roundup
Issued by NWS Sioux Falls, SD

Home | Current Version | Previous Version | Text Only | Print | Product List | Glossary Off
Versions: 1 2 3 4 5 6 7 8 9 10 11 12 13 14 15 16 17 18 19 20 21 22 23 24 25 26 27 28 29 30 31 32 33 34 35 36 37 38 39 40 41 42 43 44 45 46 47 48 49 50

811
ASUS43 KFSD 240302
RWRFSD

WEATHER ROUNDUP FOR SE SOUTH DAKOTA/SW MINNESOTA/NW IOWA
NATIONAL WEATHER SERVICE SIOUX FALLS SD
1000 PM CDT SAT JUL 23 2016

NOTE: "FAIR" INDICATES FEW OR NO CLOUDS BELOW 12,000 FEET WITH NO
SIGNIFICANT WEATHER AND OR OBSTRUCTIONS TO VISIBILITY.


SDZ038>040-050-052>070-240400-
SOUTHEAST SOUTH DAKOTA

CITY           SKY/WX    TMP DP  RH WIND       PRES   REMARKS
BROOKINGS      CLEAR     82  77  84 SW6       29.77R
CHAMBERLAIN    CLEAR     82  62  50 N8        29.88R
HURON          CLEAR     79  68  69 NW13      29.81R
MADISON        FAIR      81  81 100 SW6       29.78R
MITCHELL       MOCLDY    83  72  69 N14       29.81R
SIOUX FALLS    PTCLDY    86  73  65 SW7       29.76R
WINNER         FAIR      78  57  48 N6        29.90R
YANKTON        CLEAR     84  75  74 SE6       29.74R
$$

MNZ071-072-080-081-089-090-097-098-240400-
SOUTHWEST MINNESOTA

CITY           SKY/WX    TMP DP  RH WIND       PRES   REMARKS
FAIRMONT       CLEAR     77  75  94 SE5       29.77S
JACKSON        CLEAR     79  73  83 S6        29.79S
LUVERNE        CLEAR     79  73  83 S5        29.78R
MARSHALL       CLEAR     82  78  88 S9        29.74R
MONTEVIDEO     CLEAR     77  77 100 S7        29.75R
REDWOOD FALLS  CLEAR     81  76  84 S9        29.73S
TRACY          CLEAR     82  78  88 S10       29.75S
WINDOM         CLEAR     81  75  83 S5        29.78S
WORTHINGTON    CLEAR     79  77  94 S7        29.80R
$$

IAZ001>003-012>014-020>022-031-032-NEZ013-014-SDZ071-240400-
NORTHWEST IOWA

CITY           SKY/WX    TMP DP  RH WIND       PRES   REMARKS
CHEROKEE       CLEAR     80  78  94 S7        29.78R
DENISON        CLOUDY    82  77  83 S13G18    29.78R
ESTHERVILLE    CLEAR     78  76  93 S5        29.78R
LE MARS        CLEAR     82  77  83 S7        29.77S
SHELDON        CLEAR     81  79  94 S7        29.77R
SIOUX CITY     CLEAR     83  77  82 S5        29.77R
SPENCER        CLEAR     79  76  90 S5        29.78R
STORM LAKE     CLOUDY    79  77  94 S7        29.80R
$$

ABBREVIATIONS USED IN REMARKS
   TC - TEMPERATURE IN CELSIUS
  WCI - WIND CHILL INDEX
   HX - HEAT INDEX
  VSB - VISIBILITY





USA.gov is the U.S. government's official web portal to all federal, state and local government web resources and services.